{"data":{"norad_id":68462,"intl_designator":"2026-067AY","name":"IRIDE-MS1-EAGLET 2-15","alt_names":[],"object_type":"PAYLOAD","status":"ACTIVE","operator":null,"country":"IT","launch_date":"2026-03-30","launch_site_code":"AFWTR","launch_vehicle":null,"mission":null,"orbit_class":"UNKNOWN","rcs_meters":null,"size_class":null,"mass_kg":null,"dimensions":null,"purposes":[],"wikipedia_slug":null,"has_3d_model":false,"image_url":null,"decayed_at":null,"tle_current":{"epoch":"2026-05-25T03:14:55.708800Z","epoch_age_seconds":67320,"freshness":"FRESH","line1":"1 68462U 26067AY  26145.13536700  .00006527  00000+0  32081-3 0  9996","line2":"2 68462  97.4537 103.9525 0004588  99.5522 260.6231 15.18366321  8447","mean_motion":15.18366321,"eccentricity":0.0004588,"inclination_deg":97.4537,"raan_deg":103.9525,"arg_perigee_deg":99.5522,"mean_anomaly_deg":260.6231,"bstar":0.00032081,"rev_number":844,"period_min":94.838773758602,"perigee_km":507.61694992696,"apogee_km":513.93821794918,"semimajor_km":6888.9145839381,"source":"CELESTRAK","updated_at":"2026-05-25T13:38:07.846122Z"}}}